When you browse on this site, cookies collect data to enhance your experience and personalize the content and advertising you see.
Visit our Privacy Policy to learn more. By continuing to use the site, you agree to this use of cookies and data.
  • En España
  • Lista de países
  • Para 7 días
  • Temperatura del agua
  • El tiempo en el mapa
  • Informadores
  • user-avatar
    Iniciar sesión

    Tiempo cada hora Gluhov

    Hoy, 10 Abril, Viernes

    Tiempo Temperatura Precipitaciones Viento Presión Humedad
    00:00 +8°C° 0 mm 4 mps 744 mmHg 61%
    01:00 +8°C° 0 mm 4 mps 744 mmHg 60%
    02:00 +9°C° 0 mm 3 mps 743 mmHg 58%
    03:00 +9°C° 0 mm 3 mps 743 mmHg 62%
    04:00 +8°C° 0 mm 3 mps 743 mmHg 66%
    05:00 +8°C° 0 mm 3 mps 743 mmHg 71%
    06:00 +8°C° 0.7 mm 3 mps 743 mmHg 76%
    07:00 +8°C° 0.7 mm 4 mps 743 mmHg 81%
    08:00 +8°C° 0.7 mm 5 mps 743 mmHg 87%
    09:00 +8°C° 0.2 mm 5 mps 743 mmHg 78%
    10:00 +9°C° 0.2 mm 6 mps 743 mmHg 69%
    11:00 +10°C° 0.2 mm 6 mps 744 mmHg 60%
    12:00 +10°C° 0 mm 6 mps 744 mmHg 56%
    13:00 +10°C° 0 mm 6 mps 744 mmHg 51%
    14:00 +10°C° 0 mm 6 mps 745 mmHg 47%
    15:00 +10°C° 0 mm 6 mps 745 mmHg 47%
    16:00 +9°C° 0 mm 6 mps 745 mmHg 47%
    17:00 +9°C° 0 mm 6 mps 745 mmHg 48%
    18:00 +7°C° 0 mm 5 mps 746 mmHg 52%
    19:00 +6°C° 0 mm 5 mps 746 mmHg 55%
    20:00 +5°C° 0 mm 4 mps 746 mmHg 59%
    21:00 +5°C° 0 mm 4 mps 746 mmHg 61%
    22:00 +4°C° 0 mm 4 mps 747 mmHg 63%
    23:00 +4°C° 0 mm 4 mps 747 mmHg 65%

    Mañana, 11 Abril, Sábado

    Tiempo Temperatura Precipitaciones Viento Presión Humedad
    00:00 +3°C° 0 mm 4 mps 747 mmHg 68%
    01:00 +3°C° 0 mm 4 mps 747 mmHg 70%
    02:00 +1°C° 0 mm 4 mps 747 mmHg 73%
    03:00 +2°C° 0 mm 3 mps 747 mmHg 74%
    04:00 +2°C° 0 mm 3 mps 747 mmHg 75%
    05:00 +1°C° 0 mm 3 mps 747 mmHg 77%
    06:00 +1°C° 0 mm 4 mps 747 mmHg 72%
    07:00 +4°C° 0 mm 4 mps 748 mmHg 67%
    08:00 +5°C° 0 mm 5 mps 748 mmHg 62%
    09:00 +4°C° 0.2 mm 6 mps 748 mmHg 58%
    10:00 +5°C° 0.2 mm 6 mps 748 mmHg 55%
    11:00 +6°C° 0.2 mm 7 mps 748 mmHg 52%
    12:00 +6°C° 0.1 mm 7 mps 748 mmHg 47%
    13:00 +6°C° 0.1 mm 8 mps 749 mmHg 43%
    14:00 +7°C° 0.1 mm 8 mps 749 mmHg 38%
    15:00 +6°C° 0 mm 7 mps 749 mmHg 39%
    16:00 +5°C° 0 mm 7 mps 749 mmHg 40%
    17:00 +5°C° 0 mm 7 mps 749 mmHg 41%
    18:00 +4°C° 0 mm 6 mps 750 mmHg 47%
    19:00 +3°C° 0 mm 5 mps 750 mmHg 53%
    20:00 +3°C° 0 mm 4 mps 751 mmHg 59%
    21:00 +1°C° 0 mm 4 mps 751 mmHg 60%
    22:00 +1°C° 0 mm 4 mps 752 mmHg 61%
    23:00 0°C° 0 mm 5 mps 752 mmHg 62%

    Pasado mañana, 12 Abril, Domingo

    Tiempo Temperatura Precipitaciones Viento Presión Humedad
    00:00 0°C° 0 mm 4 mps 752 mmHg 61%
    01:00 -1°C° 0 mm 4 mps 753 mmHg 61%
    02:00 -1°C° 0 mm 4 mps 753 mmHg 60%
    03:00 -2°C° 0 mm 4 mps 753 mmHg 62%
    04:00 -1°C° 0 mm 3 mps 753 mmHg 64%
    05:00 -2°C° 0 mm 3 mps 754 mmHg 67%
    06:00 0°C° 0 mm 3 mps 754 mmHg 60%
    07:00 +1°C° 0 mm 4 mps 754 mmHg 53%
    08:00 +3°C° 0 mm 4 mps 754 mmHg 47%
    09:00 +4°C° 0 mm 4 mps 754 mmHg 43%
    10:00 +5°C° 0 mm 4 mps 754 mmHg 39%
    11:00 +7°C° 0 mm 4 mps 754 mmHg 35%
    12:00 +7°C° 0 mm 4 mps 754 mmHg 34%
    13:00 +8°C° 0 mm 4 mps 753 mmHg 33%
    14:00 +8°C° 0 mm 4 mps 753 mmHg 32%
    15:00 +8°C° 0 mm 4 mps 753 mmHg 34%
    16:00 +8°C° 0 mm 4 mps 753 mmHg 36%
    17:00 +7°C° 0 mm 4 mps 752 mmHg 37%
    18:00 +7°C° 0 mm 3 mps 752 mmHg 42%
    19:00 +5°C° 0 mm 3 mps 752 mmHg 46%
    20:00 +5°C° 0 mm 2 mps 752 mmHg 51%
    21:00 +4°C° 0 mm 2 mps 751 mmHg 52%
    22:00 +3°C° 0 mm 3 mps 751 mmHg 54%
    23:00 +2°C° 0 mm 3 mps 751 mmHg 55%

    13 Abril, Lunes

    Tiempo Temperatura Precipitaciones Viento Presión Humedad
    00:00 +2°C° 0 mm 3 mps 751 mmHg 55%
    01:00 +2°C° 0 mm 3 mps 750 mmHg 55%
    02:00 +1°C° 0 mm 3 mps 750 mmHg 56%
    03:00 +1°C° 0 mm 3 mps 750 mmHg 56%
    04:00 +1°C° 0 mm 3 mps 749 mmHg 57%
    05:00 0°C° 0 mm 4 mps 749 mmHg 57%
    06:00 +1°C° 0 mm 4 mps 749 mmHg 53%
    07:00 +3°C° 0 mm 5 mps 748 mmHg 50%
    08:00 +5°C° 0 mm 6 mps 748 mmHg 46%
    09:00 +8°C° 0 mm 7 mps 748 mmHg 45%
    10:00 +10°C° 0 mm 7 mps 747 mmHg 44%
    11:00 +11°C° 0 mm 8 mps 747 mmHg 43%
    12:00 +12°C° 0 mm 8 mps 746 mmHg 43%
    13:00 +13°C° 0 mm 8 mps 745 mmHg 43%
    14:00 +15°C° 0 mm 8 mps 745 mmHg 44%
    15:00 +13°C° 0 mm 8 mps 744 mmHg 45%
    16:00 +14°C° 0 mm 7 mps 744 mmHg 47%
    17:00 +14°C° 0 mm 6 mps 743 mmHg 49%
    18:00 +13°C° 0 mm 6 mps 743 mmHg 53%
    19:00 +11°C° 0 mm 6 mps 742 mmHg 58%
    20:00 +10°C° 0 mm 6 mps 742 mmHg 62%
    21:00 +10°C° 0 mm 7 mps 741 mmHg 62%
    22:00 +10°C° 0 mm 7 mps 741 mmHg 62%
    23:00 +10°C° 0 mm 8 mps 740 mmHg 62%

    14 Abril, Martes

    Tiempo Temperatura Precipitaciones Viento Presión Humedad
    00:00 +9°C° 0 mm 8 mps 739 mmHg 62%
    01:00 +8°C° 0 mm 9 mps 739 mmHg 62%
    02:00 +7°C° 0 mm 9 mps 738 mmHg 62%
    03:00 +7°C° 0 mm 9 mps 738 mmHg 61%
    04:00 +7°C° 0 mm 9 mps 737 mmHg 59%
    05:00 +6°C° 0 mm 9 mps 737 mmHg 58%
    06:00 +6°C° 0 mm 9 mps 736 mmHg 59%
    07:00 +6°C° 0 mm 9 mps 736 mmHg 60%
    08:00 +6°C° 0 mm 10 mps 736 mmHg 61%
    09:00 +6°C° 0.4 mm 9 mps 736 mmHg 67%
    10:00 +6°C° 0.4 mm 8 mps 736 mmHg 73%
    11:00 +6°C° 0.4 mm 8 mps 737 mmHg 79%
    12:00 +4°C° 1.2 mm 7 mps 737 mmHg 84%
    13:00 +3°C° 1.2 mm 6 mps 737 mmHg 89%
    14:00 +1°C° 1.2 mm 5 mps 738 mmHg 94%
    15:00 +1°C° 0.8 mm 5 mps 738 mmHg 93%
    16:00 +1°C° 0.8 mm 5 mps 738 mmHg 91%
    17:00 0°C° 0.8 mm 5 mps 738 mmHg 90%
    18:00 0°C° 0.2 mm 5 mps 738 mmHg 85%
    19:00 0°C° 0.2 mm 5 mps 739 mmHg 81%
    20:00 0°C° 0.2 mm 4 mps 739 mmHg 76%
    21:00 0°C° 0 mm 4 mps 739 mmHg 75%
    22:00 +1°C° 0 mm 3 mps 739 mmHg 74%
    23:00 +1°C° 0 mm 3 mps 739 mmHg 73%

    15 Abril, Miércoles

    Tiempo Temperatura Precipitaciones Viento Presión Humedad
    00:00 +1°C° 0 mm 3 mps 739 mmHg 73%
    01:00 0°C° 0 mm 3 mps 739 mmHg 73%
    02:00 -1°C° 0 mm 4 mps 739 mmHg 73%
    03:00 -2°C° 0 mm 4 mps 739 mmHg 76%
    04:00 -3°C° 0 mm 4 mps 739 mmHg 79%
    05:00 -2°C° 0 mm 3 mps 739 mmHg 81%
    06:00 -2°C° 0.1 mm 4 mps 739 mmHg 82%
    07:00 -2°C° 0.1 mm 4 mps 739 mmHg 82%
    08:00 -1°C° 0.1 mm 5 mps 739 mmHg 82%
    09:00 -1°C° 0.5 mm 6 mps 739 mmHg 76%
    10:00 +1°C° 0.5 mm 6 mps 739 mmHg 69%
    11:00 +2°C° 0.5 mm 7 mps 739 mmHg 62%
    12:00 +2°C° 0.4 mm 7 mps 739 mmHg 58%
    13:00 +2°C° 0.4 mm 8 mps 739 mmHg 55%
    14:00 +2°C° 0.4 mm 8 mps 739 mmHg 52%
    15:00 +2°C° 0.3 mm 8 mps 740 mmHg 53%
    16:00 +2°C° 0.3 mm 8 mps 740 mmHg 55%
    17:00 +2°C° 0.3 mm 7 mps 740 mmHg 56%
    18:00 +2°C° 0.1 mm 7 mps 740 mmHg 61%
    19:00 +1°C° 0.1 mm 6 mps 740 mmHg 66%
    20:00 0°C° 0.1 mm 5 mps 741 mmHg 71%
    21:00 -1°C° 0 mm 5 mps 741 mmHg 74%
    22:00 -1°C° 0 mm 5 mps 741 mmHg 77%
    23:00 -1°C° 0 mm 5 mps 741 mmHg 80%
    Mostrar más